KM4FZA Weather Reports


Display with metric or nautical units.
time (UTC)temp
F
wind
direction
speed
MPH
gust
MPH
rain 1hr
in
rain 24hr
in
rain mn
in
humidity
%
barometer
mb
20260505192515 83 269 7.0 12.0 0.00 0.00 0.00 31 1017.9
20260505191521 82 237 8.0 12.0 0.00 0.00 0.00 31 1018.1
20260505190606 83 236 6.0 9.0 0.00 0.00 0.00 31 1018.2
20260505185525 83 253 9.0 13.0 0.00 0.00 0.00 30 1018.5
20260505184519 83 256 9.0 13.0 0.00 0.00 0.00 29 1018.9
20260505183524 82 245 7.0 11.0 0.00 0.00 0.00 31 1018.7
20260505182524 83 274 9.0 15.0 0.00 0.00 0.00 29 1018.8
20260505181517 83 249 6.0 8.0 0.00 0.00 0.00 31 1018.8
20260505180523 83 303 6.0 11.0 0.00 0.00 0.00 32 1018.8
20260505175522 81 264 6.0 10.0 0.00 0.00 0.00 33 1018.9
20260505174516 81 261 8.0 11.0 0.00 0.00 0.00 32 1018.9
20260505173521 81 233 7.0 11.0 0.00 0.00 0.00 32 1019.1
20260505172520 80 220 7.0 10.0 0.00 0.00 0.00 33 1019.2
20260505171520 81 243 7.0 10.0 0.00 0.00 0.00 32 1019.3
20260505170519 80 263 7.0 10.0 0.00 0.00 0.00 32 1019.3
20260505165519 80 271 9.0 12.0 0.00 0.00 0.00 31 1019.4
20260505164518 80 241 9.0 12.0 0.00 0.00 0.00 33 1019.6
20260505163518 80 242 7.0 11.0 0.00 0.00 0.00 34 1019.7
20260505162518 79 263 7.0 10.0 0.00 0.00 0.00 36 1019.7
20260505161517 79 243 6.0 10.0 0.00 0.00 0.00 38 1019.8
20260505160517 79 266 6.0 10.0 0.00 0.00 0.00 38 1019.8
20260505152515 76 300 4.0 7.0 0.00 0.00 0.00 44 1020.0
20260505151526 76 225 6.0 11.0 0.00 0.00 0.00 45 1020.0
20260505150532 75 236 7.0 14.0 0.00 0.00 0.00 45 1020.1
20260505140549 70 240 7.0 10.0 0.00 0.00 0.00 55 1019.9
20260505124519 64 265 6.0 9.0 0.00 0.00 0.00 69 1019.8
20260505123524 62 235 4.0 6.0 0.00 0.00 0.00 73 1019.9
20260505122530 59 263 5.0 8.0 0.00 0.00 0.00 77 1019.9
20260505121518 58 267 4.0 5.0 0.00 0.00 0.00 80 1019.8
20260505120543 56 258 4.0 6.0 0.00 0.00 0.00 83 1019.8
20260505115529 54 257 3.0 5.0 0.00 0.00 0.00 89 1019.7
20260505114516 52 274 2.0 3.0 0.00 0.00 0.00 93 1019.7
20260505113521 51 298 1.0 2.0 0.00 0.00 0.00 94 1019.6
20260505112527 50 0.0 0.0 0.00 0.00 0.00 93 1019.7
20260505111533 50 0.0 0.0 0.00 0.00 0.00 95 1019.7
20260505110601 50 0.0 0.0 0.00 0.00 0.00 92 1019.7
20260505101529 52 0.0 0.0 0.00 0.00 0.00 85 1019.2
20260505100517 53 0.0 0.0 0.00 0.00 0.00 83 1019.2
20260505095523 53 266 2.0 4.0 0.00 0.00 0.00 83 1018.9
20260505094528 53 256 2.0 3.0 0.00 0.00 0.00 83 1018.8
20260505093516 53 266 2.0 4.0 0.00 0.00 0.00 83 1018.8
20260505092521 53 262 3.0 5.0 0.00 0.00 0.00 83 1018.6
20260505091526 53 300 1.0 2.0 0.00 0.00 0.00 82 1018.4
20260505090532 53 279 1.0 3.0 0.00 0.00 0.00 81 1018.5
20260505085519 54 0.0 0.0 0.00 0.00 0.00 79 1018.4
20260505084526 55 274 2.0 3.0 0.00 0.00 0.00 78 1018.4
20260505083531 55 270 3.0 4.0 0.00 0.00 0.00 77 1018.3
20260505082518 55 273 3.0 4.0 0.00 0.00 0.00 76 1018.4
20260505081524 55 263 3.0 3.0 0.00 0.00 0.00 76 1018.4
20260505080529 55 273 3.0 3.0 0.00 0.00 0.00 75 1018.2
20260505075516 56 271 2.0 3.0 0.00 0.00 0.00 75 1018.2
20260505074523 56 268 2.0 3.0 0.00 0.00 0.00 75 1018.2
20260505073548 56 279 2.0 3.0 0.00 0.00 0.00 73 1018.1
20260505072555 57 266 3.0 3.0 0.00 0.00 0.00 72 1018.0
20260505071520 57 263 2.0 3.0 0.00 0.00 0.00 71 1018.0
20260505070707 57 260 3.0 4.0 0.00 0.00 0.00 70 1018.0
20260505065532 58 275 3.0 4.0 0.00 0.00 0.00 69 1018.1
20260505064519 58 264 2.0 4.0 0.00 0.00 0.00 68 1018.1
20260505063545 59 279 2.0 4.0 0.00 0.00 0.00 66 1018.0
20260505062530 59 271 4.0 6.0 0.00 0.00 0.00 65 1018.0
20260505061538 59 270 4.0 6.0 0.00 0.00 0.00 64 1018.0
20260505060544 60 284 4.0 5.0 0.00 0.00 0.00 63 1018.0
20260505055536 60 262 4.0 6.0 0.00 0.00 0.00 62 1018.0
20260505054521 60 276 4.0 5.0 0.00 0.00 0.00 61 1018.0
20260505053548 61 258 3.0 5.0 0.00 0.00 0.00 59 1018.2
20260505052532 61 267 3.0 5.0 0.00 0.00 0.00 58 1018.3
20260505051520 62 260 4.0 6.0 0.00 0.00 0.00 57 1018.3
20260505050545 62 275 3.0 5.0 0.00 0.00 0.00 56 1018.2
20260505041517 64 280 4.0 6.0 0.00 0.00 0.00 48 1018.2
20260505040543 64 260 4.0 6.0 0.00 0.00 0.00 45 1018.1
20260505035528 63 264 4.0 7.0 0.00 0.00 0.00 46 1018.2
20260505034515 63 243 3.0 6.0 0.00 0.00 0.00 45 1018.2
20260505033521 62 258 3.0 4.0 0.00 0.00 0.00 46 1018.2
20260505032526 62 267 3.0 5.0 0.00 0.00 0.00 46 1018.2
20260505031553 61 263 3.0 6.0 0.00 0.00 0.00 46 1018.2
20260505030519 60 278 2.0 3.0 0.00 0.00 0.00 47 1018.3
20260505025525 59 300 1.0 2.0 0.00 0.00 0.00 47 1018.2
20260505024530 59 274 0.0 3.0 0.00 0.00 0.00 47 1018.3
20260505023517 59 0.0 0.0 0.00 0.00 0.00 46 1018.2
20260505022523 60 0.0 0.0 0.00 0.00 0.00 45 1018.1
20260505021529 60 0.0 0.0 0.00 0.00 0.00 45 1018.0
20260505020516 61 0.0 0.0 0.00 0.00 0.00 45 1017.9
20260505015542 62 0.0 0.0 0.00 0.00 0.00 44 1017.9
20260505014527 63 0.0 0.0 0.00 0.00 0.00 42 1017.7
20260505013515 64 265 2.0 2.0 0.00 0.00 0.00 39 1017.5
20260505012520 63 0.0 0.0 0.00 0.00 0.00 41 1017.5
20260505011525 63 278 2.0 3.0 0.00 0.00 0.00 41 1017.5
20260505010531 63 0.0 0.0 0.00 0.00 0.00 42 1017.3
20260505005519 63 0.0 0.0 0.00 0.00 0.00 40 1017.2
20260505004524 64 0.0 0.0 0.00 0.00 0.00 39 1017.1
20260505003530 66 0.0 0.0 0.00 0.00 0.00 39 1017.0
20260505002517 67 0.0 0.0 0.00 0.00 0.00 37 1016.9
20260505001543 69 0.0 0.0 0.00 0.00 0.00 35 1016.8
20260505000548 71 0.0 0.0 0.00 0.00 0.00 33 1016.7
20260504235557 72 272 0.0 2.0 0.00 0.00 0.00 33 1016.7
20260504234521 73 270 0.0 2.0 0.00 0.00 0.00 32 1016.5
20260504233527 74 283 3.0 5.0 0.00 0.00 0.00 29 1016.4
20260504232526 76 270 0.0 2.0 0.00 0.00 0.00 28 1016.4
20260504231520 77 262 2.0 4.0 0.00 0.00 0.00 27 1016.4
20260504230547 78 262 2.0 3.0 0.00 0.00 0.00 25 1016.2
20260504225525 80 253 4.0 5.0 0.00 0.00 0.00 23 1016.4
20260504224518 80 243 5.0 10.0 0.00 0.00 0.00 23 1016.4
20260504223524 81 267 4.0 7.0 0.00 0.00 0.00 23 1016.5
20260504222523 82 263 5.0 9.0 0.00 0.00 0.00 22 1016.5
20260504221557 82 252 5.0 8.0 0.00 0.00 0.00 23 1016.5
20260504220523 82 263 5.0 6.0 0.00 0.00 0.00 23 1016.4
20260504215522 82 272 6.0 10.0 0.00 0.00 0.00 23 1016.5
20260504214516 82 268 5.0 7.0 0.00 0.00 0.00 23 1016.4
20260504213541 81 274 4.0 7.0 0.00 0.00 0.00 25 1016.5
20260504212520 81 249 5.0 7.0 0.00 0.00 0.00 24 1016.5
20260504211520 82 198 6.0 9.0 0.00 0.00 0.00 25 1016.5
20260504210519 81 335 3.0 5.0 0.00 0.00 0.00 25 1016.7
20260504205519 81 262 5.0 7.0 0.00 0.00 0.00 27 1016.7
20260504204518 82 267 6.0 8.0 0.00 0.00 0.00 25 1016.9
20260504203523 81 283 5.0 8.0 0.00 0.00 0.00 26 1017.0
20260504202529 81 32 4.0 6.0 0.00 0.00 0.00 26 1017.0
20260504201517 82 284 5.0 9.0 0.00 0.00 0.00 26 1017.1
20260504200522 81 268 4.0 7.0 0.00 0.00 0.00 26 1017.2
20260504195527 81 259 5.0 7.0 0.00 0.00 0.00 26 1017.3
20260504194535 81 286 3.0 6.0 0.00 0.00 0.00 27 1017.3
20260504193520 81 260 4.0 8.0 0.00 0.00 0.00 27 1017.5